CW9648 Weather Reports


time (UTC)temp
C
wind
direction
speed
KPH
gust
KPH
rain 1hr
cm
rain 24hr
cm
rain mn
cm
humidity
%
barometer
mb
20260505102004 20 172 1.6 6.4 0.00 0.00 0.00 92 1008.9
20260505101504 20 168 3.2 14.5 0.00 0.00 0.00 92 1009.0
20260505101004 20 169 3.2 14.5 0.00 0.00 0.00 92 1009.1
20260505100504 20 187 1.6 4.8 0.00 0.00 0.00 92 1009.2
20260505100004 20 197 1.6 4.8 0.00 0.00 0.00 92 1009.2
20260505095504 20 182 1.6 8.0 0.00 0.00 0.00 92 1009.3
20260505095004 20 183 1.6 8.0 0.00 0.00 0.00 92 1009.4
20260505094504 20 187 1.6 8.0 0.00 0.00 0.00 92 1009.4
20260505094004 20 175 3.2 8.0 0.00 0.00 0.00 92 1009.6
20260505093504 20 180 3.2 8.0 0.00 0.00 0.00 92 1009.5
20260505093004 20 193 1.6 6.4 0.00 0.00 0.00 92 1009.7
20260505092504 20 207 1.6 4.8 0.00 0.00 0.00 91 1009.7
20260505092004 20 200 1.6 6.4 0.00 0.00 0.00 91 1009.9
20260505091504 20 205 1.6 6.4 0.00 0.00 0.00 91 1010.0
20260505091004 20 203 1.6 6.4 0.00 0.00 0.00 91 1010.0
20260505090504 20 196 1.6 4.8 0.00 0.00 0.00 91 1009.8
20260505090004 20 195 1.6 3.2 0.00 0.00 0.00 91 1009.9
20260505085504 20 194 1.6 3.2 0.00 0.00 0.00 91 1009.9
20260505085025 20 197 1.6 4.8 0.00 0.00 0.00 91 1010.0
20260505084525 20 191 1.6 4.8 0.00 0.00 0.00 91 1010.0
20260505084004 20 186 1.6 8.0 0.00 0.00 0.00 90 1009.9
20260505083504 20 184 1.6 8.0 0.00 0.00 0.00 90 1009.9
20260505083004 20 179 3.2 11.3 0.00 0.00 0.00 90 1010.1
20260505082504 20 175 1.6 11.3 0.00 0.00 0.00 90 1010.2
20260505082004 20 188 1.6 4.8 0.00 0.00 0.00 90 1010.2
20260505081504 20 194 1.6 6.4 0.00 0.00 0.00 90 1010.3
20260505081004 20 197 1.6 6.4 0.00 0.00 0.00 90 1010.3
20260505080525 20 205 1.6 4.8 0.00 0.00 0.00 89 1010.2
20260505080025 20 187 1.6 6.4 0.00 0.00 0.00 89 1010.1
20260505075504 20 175 1.6 6.4 0.00 0.00 0.00 89 1010.1
20260505075025 20 177 1.6 6.4 0.00 0.00 0.00 89 1010.2
20260505074504 20 191 1.6 6.4 0.00 0.00 0.00 89 1010.4
20260505074025 20 197 1.6 8.0 0.00 0.00 0.00 88 1010.3
20260505073504 20 192 1.6 8.0 0.00 0.00 0.00 88 1010.3
20260505073025 20 192 3.2 8.0 0.00 0.00 0.00 88 1010.3
20260505072504 20 200 3.2 8.0 0.00 0.00 0.00 88 1010.3
20260505072004 20 207 3.2 8.0 0.00 0.00 0.00 88 1010.4
20260505071504 20 202 3.2 8.0 0.00 0.00 0.00 88 1010.4
20260505071004 20 214 3.2 6.4 0.00 0.00 0.00 88 1010.5
20260505070504 20 215 3.2 6.4 0.00 0.00 0.00 88 1010.6
20260505070004 20 196 3.2 6.4 0.00 0.00 0.00 88 1010.5
20260505065525 20 192 1.6 6.4 0.00 0.00 0.00 88 1010.5
20260505065004 20 203 1.6 4.8 0.00 0.00 0.00 87 1010.6
20260505064525 20 202 1.6 8.0 0.00 0.00 0.00 87 1010.7
20260505064004 20 190 3.2 11.3 0.00 0.00 0.00 87 1010.6
20260505063504 20 181 3.2 11.3 0.00 0.00 0.00 87 1010.8
20260505063004 20 182 3.2 9.7 0.00 0.00 0.00 87 1010.8
20260505062504 20 200 3.2 6.4 0.00 0.00 0.00 87 1010.9
20260505062004 20 204 3.2 8.0 0.00 0.00 0.00 87 1010.9
20260505061525 20 205 3.2 8.0 0.00 0.00 0.00 87 1011.0
20260505061025 20 183 4.8 14.5 0.00 0.00 0.00 86 1010.8
20260505060504 20 174 4.8 14.5 0.00 0.00 0.00 86 1010.8
20260505060025 20 185 3.2 14.5 0.00 0.00 0.00 86 1010.9
20260505055504 20 196 1.6 8.0 0.00 0.00 0.00 86 1011.0
20260505055004 20 207 1.6 6.4 0.00 0.00 0.00 86 1011.0
20260505054525 20 194 3.2 11.3 0.00 0.00 0.00 85 1011.1
20260505054025 20 188 3.2 11.3 0.00 0.00 0.00 85 1011.0
20260505053525 20 201 3.2 8.0 0.00 0.00 0.00 85 1011.0
20260505053004 20 194 3.2 8.0 0.00 0.00 0.00 85 1011.0
20260505052504 20 192 3.2 9.7 0.00 0.00 0.00 85 1011.1
20260505052004 20 200 3.2 9.7 0.00 0.00 0.00 84 1011.2
20260505051504 20 200 3.2 6.4 0.00 0.00 0.00 84 1011.3
20260505051025 20 196 3.2 14.5 0.00 0.00 0.00 84 1011.3
20260505050504 20 185 3.2 17.7 0.00 0.00 0.00 84 1011.2
20260505041504 21 200 3.2 8.0 0.00 0.00 0.00 81 1011.5
20260505041004 21 192 3.2 8.0 0.00 0.00 0.00 81 1011.6
20260505040504 21 193 3.2 8.0 0.00 0.00 0.00 81 1011.5
20260505040005 21 196 3.2 8.0 0.00 0.00 0.00 81 1011.5
20260505035504 21 195 4.8 14.5 0.00 0.00 0.00 81 1011.4
20260505035004 21 197 4.8 14.5 0.00 0.00 0.00 81 1011.4
20260505034504 21 193 3.2 11.3 0.00 0.00 0.00 81 1011.4
20260505034004 21 196 3.2 11.3 0.00 0.00 0.00 80 1011.3
20260505033504 21 198 3.2 11.3 0.00 0.00 0.00 80 1011.3
20260505033004 21 188 3.2 12.9 0.00 0.00 0.00 80 1011.3
20260505032504 21 188 3.2 12.9 0.00 0.00 0.00 80 1011.2
20260505032004 21 183 3.2 11.3 0.00 0.00 0.00 79 1011.3
20260505031504 21 187 3.2 11.3 0.00 0.00 0.00 79 1011.2
20260505031004 21 205 1.6 9.7 0.00 0.00 0.00 79 1011.4
20260505030504 21 195 3.2 8.0 0.00 0.00 0.00 79 1011.5
20260505030004 21 190 3.2 8.0 0.00 0.00 0.00 78 1011.5
20260505025504 21 198 3.2 8.0 0.00 0.00 0.00 78 1011.6
20260505025004 21 202 3.2 8.0 0.00 0.00 0.00 78 1011.6
20260505024504 21 195 3.2 11.3 0.00 0.00 0.00 77 1011.5
20260505024004 22 192 3.2 11.3 0.00 0.00 0.00 77 1011.5
20260505023504 22 191 3.2 9.7 0.00 0.00 0.00 77 1011.5
20260505023004 22 189 3.2 9.7 0.00 0.00 0.00 77 1011.4
20260505022504 22 189 3.2 9.7 0.00 0.00 0.00 76 1011.3
20260505022004 22 188 3.2 9.7 0.00 0.00 0.00 76 1011.2
20260505021504 22 203 3.2 9.7 0.00 0.00 0.00 76 1011.1
20260505021004 22 212 3.2 6.4 0.00 0.00 0.00 75 1011.1
20260505020525 22 200 3.2 17.7 0.00 0.00 0.00 75 1011.0
20260505020004 22 192 3.2 17.7 0.00 0.00 0.00 75 1010.9
20260505015504 22 184 3.2 11.3 0.00 0.00 0.00 74 1010.8
20260505015004 22 186 3.2 9.7 0.00 0.00 0.00 74 1010.9
20260505014504 22 193 3.2 9.7 0.00 0.00 0.00 74 1011.0
20260505014004 22 193 3.2 8.0 0.00 0.00 0.00 73 1011.0
20260505013525 22 195 3.2 8.0 0.00 0.00 0.00 73 1010.9
20260505013007 22 199 3.2 8.0 0.00 0.00 0.00 73 1010.7
20260505012504 22 193 1.6 8.0 0.00 0.00 0.00 73 1010.6
20260505012025 23 188 3.2 11.3 0.00 0.00 0.00 72 1010.6
20260505011504 23 195 3.2 11.3 0.00 0.00 0.00 72 1010.5
20260505011025 23 203 1.6 8.0 0.00 0.00 0.00 71 1010.6
20260505010504 23 196 3.2 8.0 0.00 0.00 0.00 70 1010.6
20260505010004 23 184 3.2 9.7 0.00 0.00 0.00 70 1010.6
20260505005503 23 190 3.2 9.7 0.00 0.00 0.00 69 1010.6
20260505005025 23 198 3.2 12.9 0.00 0.00 0.00 69 1010.7
20260505004504 23 193 3.2 12.9 0.00 0.00 0.00 69 1010.6
20260505004004 23 185 3.2 11.3 0.00 0.00 0.00 69 1010.7
20260505003504 23 186 3.2 11.3 0.00 0.00 0.00 69 1010.6
20260505003003 24 189 3.2 6.4 0.00 0.00 0.00 68 1010.6
20260505002504 24 183 3.2 11.3 0.00 0.00 0.00 68 1010.5
20260505002004 24 184 3.2 11.3 0.00 0.00 0.00 67 1010.7
20260505001504 24 191 3.2 17.7 0.00 0.00 0.00 67 1010.8
20260505001004 24 184 4.8 17.7 0.00 0.00 0.00 67 1010.8
20260505000525 25 181 3.2 17.7 0.00 0.00 0.00 66 1010.9
20260505000004 25 191 4.8 12.9 0.00 0.00 0.00 66 1010.8
20260504235504 25 360 3.2 12.9 0.00 0.00 0.00 65 1010.8
20260504235004 25 188 3.2 11.3 0.00 0.00 0.00 65 1010.7
20260504234504 25 181 4.8 16.1 0.00 0.00 0.00 64 1010.7
20260504234004 26 177 4.8 16.1 0.00 0.00 0.00 63 1010.8
20260504233503 26 177 3.2 9.7 0.00 0.00 0.00 62 1010.9
20260504233024 26 180 3.2 9.7 0.00 0.00 0.00 62 1010.8
20260504232504 26 173 3.2 9.7 0.00 0.00 0.00 61 1010.9
20260504232025 26 171 3.2 8.0 0.00 0.00 0.00 60 1011.1
20260504231525 26 175 1.6 8.0 0.00 0.00 0.00 61 1011.0
20260504231004 26 177 3.2 8.0 0.00 0.00 0.00 61 1011.1
20260504230524 26 180 3.2 8.0 0.00 0.00 0.00 61 1011.1
20260504230004 26 171 3.2 9.7 0.00 0.00 0.00 60 1011.1
20260504225504 26 167 4.8 11.3 0.00 0.00 0.00 60 1011.2
20260504225004 26 170 3.2 11.3 0.00 0.00 0.00 59 1011.2
20260504224504 27 174 4.8 11.3 0.00 0.00 0.00 58 1011.3
20260504224025 27 173 4.8 11.3 0.00 0.00 0.00 58 1011.3
20260504223504 27 178 3.2 11.3 0.00 0.00 0.00 56 1011.3
20260504223025 27 175 4.8 12.9 0.00 0.00 0.00 55 1011.4
20260504222525 27 169 4.8 12.9 0.00 0.00 0.00 55 1011.5
20260504222025 27 187 4.8 14.5 0.00 0.00 0.00 56 1011.6
20260504221504 27 197 4.8 14.5 0.00 0.00 0.00 52 1011.7
20260504221007 27 181 3.2 11.3 0.00 0.00 0.00 55 1011.6
20260504220504 27 168 4.8 14.5 0.00 0.00 0.00 54 1011.8
20260504220025 27 173 4.8 14.5 0.00 0.00 0.00 55 1011.8
20260504215504 27 189 4.8 16.1 0.00 0.00 0.00 56 1011.8
20260504215004 27 181 4.8 17.7 0.00 0.00 0.00 54 1011.6
20260504214504 27 165 6.4 19.3 0.00 0.00 0.00 55 1011.6
20260504214025 27 162 8.0 19.3 0.00 0.00 0.00 56 1011.8
20260504213504 27 159 8.0 17.7 0.00 0.00 0.00 54 1011.9
20260504213003 27 155 8.0 22.5 0.00 0.00 0.00 55 1012.0
20260504212525 27 165 6.4 22.5 0.00 0.00 0.00 53 1012.2
20260504212004 28 189 3.2 14.5 0.00 0.00 0.00 53 1012.4
20260504211504 27 203 4.8 12.9 0.00 0.00 0.00 53 1012.4
20260504211004 27 213 4.8 11.3 0.00 0.00 0.00 52 1012.6
20260504210504 27 216 4.8 11.3 0.00 0.00 0.00 52 1012.6
20260504210004 27 199 4.8 14.5 0.00 0.00 0.00 50 1012.6
20260504205525 27 181 4.8 14.5 0.00 0.00 0.00 52 1012.6
20260504205004 27 166 4.8 12.9 0.00 0.00 0.00 54 1012.6
20260504204504 27 162 6.4 16.1 0.00 0.00 0.00 54 1012.7
20260504204003 27 160 9.7 16.1 0.00 0.00 0.00 53 1012.7
20260504203503 27 164 8.0 20.9 0.00 0.00 0.00 53 1012.9
20260504203003 27 160 6.4 20.9 0.00 0.00 0.00 55 1013.0
20260504202524 27 176 6.4 16.1 0.00 0.00 0.00 52 1013.0
20260504202003 27 218 4.8 9.7 0.00 0.00 0.00 51 1013.4
20260504201504 27 170 4.8 16.1 0.00 0.00 0.00 53 1013.3
20260504201003 27 187 4.8 16.1 0.00 0.00 0.00 53 1013.4
20260504200504 27 208 6.4 16.1 0.00 0.00 0.00 51 1013.5
20260504200004 27 201 6.4 16.1 0.00 0.00 0.00 49 1013.6
20260504195504 27 214 4.8 14.5 0.00 0.00 0.00 52 1013.6
20260504195003 27 181 4.8 16.1 0.00 0.00 0.00 50 1013.6
20260504194504 27 151 4.8 16.1 0.00 0.00 0.00 51 1013.6
20260504194004 27 156 6.4 17.7 0.00 0.00 0.00 51 1013.8
20260504193525 27 156 6.4 17.7 0.00 0.00 0.00 48 1013.9
20260504193003 27 158 6.4 16.1 0.00 0.00 0.00 52 1014.0
20260504192503 27 170 4.8 14.5 0.00 0.00 0.00 49 1014.1
20260504192003 27 165 6.4 12.9 0.00 0.00 0.00 51 1014.2
20260504191504 27 182 4.8 12.9 0.00 0.00 0.00 50 1014.2
20260504191025 27 184 4.8 14.5 0.00 0.00 0.00 48 1014.4
20260504190504 27 162 6.4 17.7 0.00 0.00 0.00 50 1014.5
20260504190004 26 157 9.7 17.7 0.00 0.00 0.00 51 1014.5
20260504185504 26 154 8.0 19.3 0.00 0.00 0.00 50 1014.6
20260504185004 26 155 4.8 19.3 0.00 0.00 0.00 50 1014.7
20260504184504 26 164 4.8 14.5 0.00 0.00 0.00 49 1014.7
20260504184004 26 158 6.4 17.7 0.00 0.00 0.00 50 1014.7
20260504183503 26 160 8.0 17.7 0.00 0.00 0.00 50 1014.7
20260504183003 26 161 4.8 12.9 0.00 0.00 0.00 51 1014.8
20260504182503 26 153 6.4 17.7 0.00 0.00 0.00 52 1015.0
20260504182003 26 127 6.4 17.7 0.00 0.00 0.00 51 1015.0
20260504181503 26 20 4.8 14.5 0.00 0.00 0.00 52 1015.2
20260504181024 26 47 6.4 17.7 0.00 0.00 0.00 53 1015.4
20260504180503 26 356 4.8 17.7 0.00 0.00 0.00 53 1015.5
20260504180004 26 1 6.4 17.7 0.00 0.00 0.00 53 1015.6
20260504175503 25 360 6.4 17.7 0.00 0.00 0.00 53 1015.8
20260504175024 25 360 6.4 14.5 0.00 0.00 0.00 50 1015.8
20260504174524 25 1 4.8 12.9 0.00 0.00 0.00 54 1015.8
20260504174024 25 360 4.8 14.5 0.00 0.00 0.00 53 1015.8
20260504173503 25 359 4.8 14.5 0.00 0.00 0.00 52 1015.9
20260504173003 25 331 4.8 12.9 0.00 0.00 0.00 50 1015.9
20260504172524 25 348 6.4 16.1 0.00 0.00 0.00 54 1016.0
20260504172003 25 5 8.0 17.7 0.00 0.00 0.00 53 1016.1
20260504171504 25 2 6.4 17.7 0.00 0.00 0.00 52 1016.1
20260504171003 24 358 4.8 12.9 0.00 0.00 0.00 56 1016.1
20260504170531 24 358 4.8 12.9 0.00 0.00 0.00 51 1016.1
20260504151006 22 158 6.4 17.7 0.00 0.00 0.00 65 1017.1
20260504150524 22 155 4.8 17.7 0.00 0.00 0.00 65 1017.2
20260504141003 20 192 3.2 8.0 0.00 0.00 0.00 70 1017.4
20260504140524 20 179 4.8 12.9 0.00 0.00 0.00 71 1017.4
20260504130503 16 167 1.6 8.0 0.00 0.00 0.00 92 1017.2
20260504110525 13 0 0.0 0.0 0.00 0.03 0.00 89 1016.9